Weather History for KPMP - May, 2012

Change the Weather History Date:

Wednesday, May 30, 2012

  Actual Average Record
Temperature  
Mean Temperature 80 °F -  
Max Temperature 88 °F 88 °F 93 °F (1974)
Min Temperature 73 °F 71 °F 60 °F (1978)
Cooling Degree Days 15    
Growing Degree Days 30 (Base 50)    
Moisture  
Dew Point 73 °F    
Average Humidity 79    
Maximum Humidity 100    
Minimum Humidity 55    
Precipitation  
Precipitation 0.00 in - - ()
Sea Level Pressure  
Sea Level Pressure 29.91 in    
Wind  
Wind Speed 5 mph (SSW)    
Max Wind Speed 16 mph    
Max Gust Speed 23 mph    
Visibility 10 miles    
Events Thunderstorm    
Averages and records for this station are not official NWS values.
T = Trace of Precipitation, MM = Missing Value Source: NWS Daily Summary

Daily Weather History Graph

Daily Weather History Graph

Search for Another Location

Airport or City:

Trip Planner

Search our weather history database for the weather conditions in past years. The results will help you decide how hot, cold, wet, or windy it might be!

Date:

Astronomy

May. 30, 2012 Rise Set
Actual Time 6:28 AM EDT 8:08 PM EDT
Civil Twilight 6:02 AM EDT 8:33 PM EDT
Nautical Twilight 5:31 AM EDT 9:04 PM EDT
Astronomical Twilight 4:59 AM EDT 9:37 PM EDT
Moon 3:09 PM EDT (5/30) 2:23 AM EDT (5/30)
Length of Visible Light 14h 31m
Length of Day
13h 39m
Waxing Gibbous, 70% of the Moon is Illuminated
May 30
Waxing Gibbous
Jun 4
Full
Jun 11
Last Quarter
Jun 19
New
Jun 26
First Quarter

Hourly Weather History & Observations

Time (EDT) Temp. Heat Index Dew Point Humidity Pressure Visibility Wind Dir Wind Speed Gust Speed Precip Events Conditions
12:53 AM 75.9 °F - 73.0 °F 91% 29.96 in 10.0 mi SSW 3.5 mph - N/A   Clear
1:53 AM 75.0 °F - 73.0 °F 94% 29.94 in 10.0 mi South 3.5 mph - N/A   Clear
2:53 AM 75.0 °F - 73.0 °F 94% 29.92 in 10.0 mi Calm Calm - N/A   Clear
3:53 AM 73.9 °F - 73.0 °F 97% 29.90 in 10.0 mi Calm Calm - N/A   Clear
4:53 AM 73.9 °F - 73.0 °F 97% 29.90 in 10.0 mi Calm Calm - N/A   Clear
5:53 AM 73.0 °F - 73.0 °F 100% 29.92 in 10.0 mi Calm Calm - N/A   Clear
6:53 AM 73.0 °F - 73.0 °F 100% 29.93 in 10.0 mi West 3.5 mph - N/A   Clear
7:53 AM 75.9 °F - 73.9 °F 94% 29.94 in 10.0 mi Calm Calm - N/A   Clear
8:53 AM 79.0 °F - 73.9 °F 84% 29.94 in 10.0 mi West 5.8 mph - N/A   Clear
9:53 AM 82.0 °F 87.9 °F 73.9 °F 76% 29.94 in 10.0 mi West 6.9 mph - N/A   Scattered Clouds
10:53 AM 84.0 °F 89.6 °F 72.0 °F 67% 29.94 in 10.0 mi West 9.2 mph - N/A   Partly Cloudy
11:53 AM 86.0 °F 91.5 °F 71.1 °F 61% 29.94 in 10.0 mi WNW 4.6 mph - N/A   Scattered Clouds
12:53 PM 87.1 °F 91.3 °F 69.1 °F 55% 29.92 in 10.0 mi West 8.1 mph - N/A   Overcast
1:53 PM 84.0 °F 91.9 °F 75.0 °F 74% 29.91 in 10.0 mi ESE 11.5 mph - N/A   Scattered Clouds
2:53 PM 86.0 °F 95.1 °F 75.0 °F 70% 29.89 in 10.0 mi SE 13.8 mph - N/A   Scattered Clouds
3:53 PM 86.0 °F 93.8 °F 73.9 °F 67% 29.87 in 10.0 mi SSE 15.0 mph - N/A   Partly Cloudy
4:53 PM 84.9 °F 93.3 °F 75.0 °F 72% 29.86 in 10.0 mi SSE 16.1 mph 20.7 mph N/A   Clear
5:53 PM 84.0 °F 91.9 °F 75.0 °F 74% 29.85 in 10.0 mi South 16.1 mph - N/A   Partly Cloudy
6:53 PM 82.9 °F 88.8 °F 73.0 °F 72% 29.86 in 10.0 mi South 12.7 mph 23.0 mph N/A   Partly Cloudy
7:53 PM 82.0 °F 88.6 °F 75.0 °F 79% 29.87 in 10.0 mi South 12.7 mph - N/A   Scattered Clouds
8:53 PM 82.0 °F 87.9 °F 73.9 °F 76% 29.89 in 10.0 mi South 9.2 mph - N/A   Overcast
9:01 PM 82.4 °F 88.2 °F 73.4 °F 74% 29.89 in 10.0 mi South 9.2 mph - N/A Thunderstorm Mostly Cloudy
9:32 PM 82.4 °F 88.2 °F 73.4 °F 74% 29.90 in 10.0 mi SSW 6.9 mph - N/A   Scattered Clouds
9:53 PM 80.1 °F 83.8 °F 72.0 °F 76% 29.91 in 10.0 mi NNW 3.5 mph - N/A   Partly Cloudy
10:53 PM 82.0 °F 85.9 °F 70.0 °F 67% 29.93 in 10.0 mi WSW 6.9 mph - N/A   Mostly Cloudy
11:53 PM 80.1 °F 83.2 °F 70.0 °F 71% 29.93 in 10.0 mi SW 8.1 mph - N/A   Clear